Regional Weather Roundup
Issued by NWS

Home | Current Version | Previous Version | Graphics & Text | Print | Product List | Glossary Off
Versions: 1 2 3 4 5 6 7 8 9 10 11 12 13 14 15 16 17 18 19 20 21 22 23 24 25 26 27 28 29 30 31 32 33 34 35 36 37 38 39 40 41 42 43 44 45 46 47 48 49 50

000
ASUS45 KBOU 130307
RWRCO

WEATHER ROUNDUP FOR COLORADO
NATIONAL WEATHER SERVICE DENVER/BOULDER CO
800 PM MST FRI FEB 12 2016

NOTE: "FAIR" INDICATES FEW OR NO CLOUDS BELOW 12000 FEET WITH NO
SIGNIFICANT WEATHER AND/OR OBSTRUCTIONS TO VISIBILITY.

COZ001>005-013-030-031-130400-
...NORTHWEST COLORADO...

CITY           SKY/WX    TMP DP  RH WIND       PRES   REMARKS
CRAIG          FAIR      19  15  84 CALM      30.33S
HAYDEN         FAIR      30  18  59 E9        30.32F WCI  22
MEEKER         FAIR      30  22  72 CALM      30.32S
MOUNT WERNER   NOT AVBL
STEAMBOAT SPGS FAIR      27  21  77 CALM      30.34S
WALDEN         FAIR      36  21  55 S8        30.34S
$$

COZ006>008-011-130400-
...WEST CENTRAL VALLEYS...

CITY           SKY/WX    TMP DP  RH WIND       PRES   REMARKS
GRAND JUNCTION FAIR      32  30  92 CALM      30.33S
MONTROSE       FAIR      35  27  72 S7        30.36S WCI  29
EAGLE          CLEAR     36  27  69 CALM      30.37S
RIFLE          FAIR      35  24  64 CALM      30.34S
DELTA          FAIR      39  31  74 E8        30.35S
NUCLA          FAIR      37  27  65 E9        30.38R
$$

COZ017>023-064>068-130400-
...SOUTHWEST COLORADO...

CITY           SKY/WX    TMP DP  RH WIND       PRES   REMARKS
DURANGO        FAIR      35  24  64 NE3       30.37R
CORTEZ         FAIR      33  25  72 E8        30.35R WCI  26
PAGOSA SPRINGS FAIR      37  22  53 CALM      30.41S
TELLURIDE      FAIR      40  22  48 SE7       30.46F
WOLF CREEK PAS FAIR      32  14  47 SW15      30.58S WCI  22
$$

COZ009-010-012-014-032>034-037-058>063-130400-
...CENTRAL COLORADO...

CITY           SKY/WX    TMP DP  RH WIND       PRES   REMARKS
ASPEN          FAIR      32  22  66 SW8       30.38S WCI  25
BUENA VISTA    FAIR      41  22  48 CALM      30.35S
COPPER MTN     FAIR      34  19  55 W6        30.50F WCI  29
BERTHOUD PASS  FAIR      27  16  63 NW36G46   30.44F WCI   9
COTTONWOOD PAS FAIR      45  14  29 W14G23    30.41F
GUNNISON       FAIR      10   3  72 NE5       30.49S WCI   2
KREMMLING      FAIR      12   9  85 CALM      30.41S
LEADVILLE      FAIR      33  16  49 N6        30.42S WCI  28
MONARCH PASS   FAIR      32  18  55 W21       30.62S WCI  20
SALIDA         NOT AVBL
SUNLIGHT       FAIR      34  21  60 CALM      30.51S
WILKERSON PASS FAIR      34  19  55 SW7       30.48S WCI  28
$$

COZ069>075-130400-
...SAN LUIS VALLEY/SANGRE DE CRISTO MOUNTAINS...

CITY           SKY/WX    TMP DP  RH WIND       PRES   REMARKS
ALAMOSA        FAIR      36  22  56 N5        30.37S
LA VETA PASS   FAIR      36  19  51 S7        30.44F
SAGUACHE       FAIR      32  23  69 CALM      30.40S
$$

COZ035-036-038>040-130400-
...NORTHERN COLORADO FRONT RANGE...

CITY           SKY/WX    TMP DP  RH WIND       PRES   REMARKS
DENVER INTL AP FAIR      33  30  88 NE3       30.25S
DMNS CITY PARK   N/A     40  32  73 NE5       30.25S
AURORA         PTCLDY    35  32  88 S6        30.25F WCI  30
FRONT RANGE AP PTCLDY    32  30  93 CALM      30.25F
ERIE MUNI ARPT FAIR      35  32  90 CALM      30.26S
BOULDER MUN AP FAIR      37  30  75 N3        30.26S
CENTENNIAL     MOCLDY    41  33  73 CALM      30.25F
BROOMFIELD     PTCLDY    39  32  75 N5        30.26F
FORT COLLINS   FAIR      36  28  75 CALM      30.28R
LONGMONT       FAIR      37  32  81 CALM      30.28S
$$

COZ041-046-047-076>085-087-088-130400-
...PIKES PEAK/PALMER DIVIDE AND SOUTHERN FOOTHILLS...

CITY           SKY/WX    TMP DP  RH WIND       PRES   REMARKS
COLO. SPRINGS  FAIR      41  28  60 N5        30.29S
A. F. ACADEMY  FAIR      42  28  55 CALM      30.28S
SCHRIEVER AFB  FAIR      44  28  54 N6        30.28F
ELLICOTT       FAIR     N/A N/A N/A SE8       30.27S
FALCON         FAIR      38  27  65 SW3       30.31S
FORT CARSON    FAIR      42  32  68 W1        30.26S
LIMON          FAIR      31  30  96 SE7       30.28S WCI  24
MONUMENT HILL  FAIR      39  28  65 SW7       30.31R
TRINIDAD       FAIR      51  21  30 SW14      30.25S
$$

COZ042>045-048>051-090-091-130400-
...NORTHEAST COLORADO...

CITY           SKY/WX    TMP DP  RH WIND       PRES   REMARKS
GREELEY ARPT   FAIR      34  28  80 E10       30.29R WCI  26
AKRON          FOG       30  30 100 SE20G25   30.29R VSB 1/4 WCI  17
BURLINGTON     FOG       30  28  92 SE14      30.35R VSB 1/4 WCI  19
WRAY           CLOUDY    32  32 100 SE14      30.37R FOG     WCI  22
STERLING       CLOUDY    32  32 100 S9        30.32S FOG     WCI  24
HOLYOKE        CLOUDY    34  32  93 SE14      30.36S WCI  24
FORT MORGAN    FOG       32  31  96 E13       30.30R VSB 1   WCI  22
$$

COZ086-089-092>099-130400-
...SOUTHEAST COLORADO...

CITY           SKY/WX    TMP DP  RH WIND       PRES   REMARKS
PUEBLO         FAIR      48  31  51 N13       30.22R
LA JUNTA       FAIR      47  29  49 E16       30.20R
LAMAR          FAIR      35  29  78 E18       30.28R WCI  24
SPRINGFIELD      N/A     41  25  53 S15       30.29R
$$



USA.gov is the U.S. government's official web portal to all federal, state and local government web resources and services.